CW3742 Weather Reports


time (UTC)temp
C
wind
direction
speed
KPH
gust
KPH
rain 1hr
cm
rain 24hr
cm
rain mn
cm
humidity
%
barometer
mb
20260903050016 27 180 4.8 11.3 0.00 0.00 0.00 81 994.1
20260903043036 27 180 4.8 9.7 0.00 0.00 0.00 81 994.0
20260903040036 27 180 4.8 11.3 0.00 0.00 0.00 80 994.0
20260903033017 27 180 6.4 11.3 0.00 0.00 0.00 79 994.1
20260903030036 28 180 6.4 12.9 0.00 0.00 0.00 78 994.0
20260903023016 28 180 4.8 9.7 0.00 0.00 0.00 76 993.9
20260903020017 29 158 6.4 12.9 0.00 0.00 0.00 76 993.6
20260903013016 29 158 6.4 11.3 0.00 0.00 0.00 75 993.3
20260903010016 30 158 6.4 11.3 0.00 0.00 0.00 73 993.2
20260903003018 31 158 6.4 12.9 0.00 0.00 0.00 71 993.3
20260903000018 32 180 6.4 11.3 0.00 0.00 0.00 70 993.4
20260902233016 33 180 4.8 11.3 0.00 0.00 0.00 66 993.6
20260902230016 34 203 8.0 19.3 0.00 0.00 0.00 59 993.6
20260902223016 35 203 9.7 17.7 0.00 0.00 0.00 59 993.6
20260902220016 35 203 9.7 19.3 0.00 0.00 0.00 58 993.8
20260902213016 35 203 11.3 19.3 0.00 0.00 0.00 56 993.9
20260902210016 35 203 12.9 24.1 0.00 0.00 0.00 57 994.1
20260902203016 35 203 12.9 24.1 0.00 0.00 0.00 57 994.3
20260902200016 35 225 14.5 25.7 0.00 0.00 0.00 57 994.5
20260902193036 34 203 14.5 27.4 0.00 0.00 0.00 59 994.7
20260902190016 34 225 12.9 24.1 0.00 0.00 0.00 58 994.8
20260902183036 33 225 12.9 24.1 0.00 0.00 0.00 61 995.1
20260902180018 33 225 11.3 22.5 0.00 0.00 0.00 61 995.4
20260902173037 33 225 11.3 20.9 0.00 0.00 0.00 62 995.8
20260902170017 32 225 11.3 19.3 0.00 0.00 0.00 64 996.0
20260902163036 31 225 8.0 16.1 0.00 0.00 0.00 65 996.1
20260902160017 31 225 4.8 12.9 0.00 0.00 0.00 66 996.2
20260902153017 30 225 4.8 11.3 0.00 0.00 0.00 67 996.1
20260902150058 28 225 8.0 17.7 0.00 0.00 0.00 70 996.1
20260902143017 27 225 9.7 19.3 0.00 0.00 0.00 75 995.9
20260902140017 26 225 8.0 35.4 0.00 0.00 0.00 78 996.2
20260902130017 25 203 9.7 16.1 0.00 0.00 0.00 79 995.5
20260902123016 24 203 6.4 12.9 0.00 0.00 0.00 83 995.6
20260902120017 23 203 6.4 12.9 0.00 0.00 0.00 85 995.5
20260902113017 23 180 6.4 11.3 0.00 0.00 0.00 84 995.3
20260902110057 23 180 6.4 12.9 0.00 0.00 0.00 83 995.3
20260902103017 24 180 8.0 12.9 0.00 0.00 0.00 82 995.4
20260902100016 24 180 6.4 12.9 0.00 0.00 0.00 80 995.5
20260902093017 25 180 6.4 9.7 0.00 0.00 0.00 79 995.5
20260902090038 25 203 6.4 11.3 0.00 0.00 0.00 77 995.3
20260902083016 25 203 8.0 14.5 0.00 0.00 0.00 76 995.1
20260902080017 26 203 9.7 19.3 0.00 0.00 0.00 74 994.7
20260902073019 26 203 8.0 12.9 0.00 0.00 0.00 74 994.7
20260902070037 25 203 6.4 11.3 0.00 0.00 0.00 75 994.8
20260902063037 26 180 6.4 12.9 0.00 0.00 0.00 75 995.1
20260902060017 26 180 6.4 9.7 0.00 0.00 0.00 74 995.1
20260902053017 26 180 4.8 8.0 0.00 0.00 0.00 71 995.3